Starlink 3167

decayed
NORAD ID: 51460 Int'l Des: 2022-010 Owner: SPXS Country: US Constellation: starlink
LEOCIRCULAR
Gruppe

Über Starlink 3167

Beschreibung wird geladen...

Höhenverlauf

Altitude vs Time

uPlot chart will show altitude changes over time

Zweizeiliger Elementsatz

1 51460U 22010E 24359.27120485 .24016082 12662-4 34259-3 0 9993
2 51460 53.1964 72.5211 0004450 344.3444 119.4003 16.48691108161104
Epoch: 24. Dez. 2024 • Age: 8350 hours

Aktueller Status

Position data unavailable
Startdatum 3. Feb. 2022
Alter 3.8 years
Verglühungsdatum 24. Dez. 2024
Typ internet

Technische Details

Klassifizierung Payload
Masse 297.00 kg
Trockenmasse 275.00 kg
Gesamtmasse 297.00 kg
Länge 0.20 m
Durchmesser 2.80 m
Spannweite 9.00 m
Form Box + pan
Hersteller SPXS
Bus-Typ Starlink
Phasenstatus Unknown Transfer Status
Besitzer/Staat SPXS/US

Große Konstellationen

Loading constellations...